Погода в Палм-Кове

Австралия     16°45′44″S   145°40′00″E
темп.,
°C
ветер,
м/с
пор.,
м/с
влажн.,
%
обл.,
%
осадки,
мм/ч
давл.,
гПа
погр.,
м
8 мая, сб
сб801:00+22ююз33793 0.0 1013257
04:00+21ююз44796 0.0 1013252
07:00+21ю347713 0.0 1014255
10:00+23юв3568100 0.0 1015537
13:00+24вюв4568100 0.0 1013558
16:00+24юв5563100 0.0 1011598
19:00+23ююв566912 0.0 1013566
22:00+22ю56755 0.0 1015320
9 мая, вс
вс901:00+21ю457380 0.0 1014251
04:00+21ю567525 0.0 1013234
07:00+21ю467990 0.0 1014296
10:00+25ююв687040 0.1 1015721
13:00+25вюв77710 0.0 1012556
16:00+25юв78730 0.0 1011507
19:00+24ююв68794 0.0 1012464
22:00+23ююв588113 0.0 1013430
10 мая, пн
пн1001:00+23ю478276 0.0 1012326
04:00+23ю588313 0.1 1011358
07:00+23ю48834 0.3 1013348
10:00+26юв79767 0.6 1013776
13:00+26юв810791 0.4 1011583
16:00+25юв8118284 0.9 1010724
19:00+24ююв7108640 0.8 1012575
22:00+24ю478698 0.8 1013333
11 мая, вт
вт1101:00+24ю5883100 0.0 1012361
04:00+24ю478413 0.8 1012322
07:00+23ююв5885100 0.5 1013397
10:00+25ююв7980100 0.5 1014742
13:00+26юв7977100 0.0 1012652
16:00+26юв8107950 0.1 1012839
19:00+24ююв7108538 0.1 1013709
22:00+24ююв7108690 0.2 1014647
12 мая, ср
ср1201:00+23ююв698775 0.1 1013581
04:00+23ююв698797 0.2 1013569
07:00+23ююв698895 0.1 1014554
10:00+25юв797910 0.3 1015842
13:00+26юв8107868 0.0 1012890
16:00+26юв810776 0.0 1011801
19:00+24ююв811851 0.0 1013708
22:00+24ююв7118790 0.1 1014710